Theta_e
330 331 330 329 328 329 331 333 335 334 332 331 326 321 319 318 317 317 318 317 316 317 317 317 318 320 320 321 321 322 323 323 325 324 326 328 328 329 328 328 327 326 326 326 325 325 325 325 324 324 324 324 323 324 326 328 329 329 329 329 329 328 326 325 324 324 324 324 323 324 324 324 324 324 323 323 322 321 321 322 323 324 326 327 327
329 331 331 328 326 328 330 332 333 332 332 329 322 318 318 318 317 319 319 316 317 318 318 318 318 319 321 322 322 323 323 322 322 322 324 326 327 327 326 327 327 326 325 325 324 323 323 323 323 321 322 322 321 321 325 328 328 329 329 329 329 328 327 325 325 325 326 325 325 325 324 322 322 322 321 321 320 319 319 319 320 321 324 326 327
329 331 332 329 327 329 331 331 330 330 332 327 320 318 319 320 319 321 320 317 318 321 319 320 319 320 322 322 322 322 322 321 319 318 322 324 325 325 325 325 325 325 324 323 322 322 322 321 321 320 320 321 320 321 324 327 327 328 328 328 329 328 327 326 325 325 325 325 325 323 322 322 322 322 322 321 319 318 318 318 319 319 321 324 326
329 330 331 331 330 331 331 330 329 329 330 326 320 318 320 322 321 322 322 316 319 322 321 321 321 321 323 321 321 320 320 321 317 315 318 321 321 322 322 321 321 321 321 321 321 321 322 321 321 319 319 321 322 322 323 324 324 326 327 327 327 327 327 326 326 325 324 324 325 322 322 323 323 323 323 321 319 318 317 317 318 319 319 322 324
329 329 330 331 332 331 328 328 330 330 329 327 323 319 321 324 323 324 322 317 320 324 322 322 322 322 323 321 321 320 320 321 316 310 311 313 313 314 314 315 316 318 320 321 321 321 322 322 321 320 319 320 321 321 321 322 322 324 326 327 327 326 326 326 326 325 324 324 324 323 323 323 323 323 324 322 321 319 318 317 317 318 318 320 322
329 330 329 330 332 332 329 329 331 330 329 329 327 322 322 326 326 325 321 316 320 323 323 323 321 321 322 320 320 321 320 318 312 307 308 309 308 308 310 313 315 316 319 321 321 321 321 321 320 320 321 321 321 321 321 320 321 323 324 324 325 325 325 325 325 324 324 323 323 324 324 324 324 324 322 322 321 320 320 319 318 317 317 318 319
327 328 328 329 331 331 331 331 331 330 328 328 327 324 325 329 330 327 320 315 320 322 322 322 320 319 320 318 319 320 316 312 309 308 307 307 307 307 308 311 313 315 317 319 320 320 320 319 319 319 321 321 321 320 320 319 320 321 322 322 323 323 323 323 324 323 323 323 322 323 323 323 322 322 321 321 320 319 319 320 320 320 319 319 319
327 327 327 327 328 329 330 330 331 330 328 327 327 327 329 332 333 330 321 315 318 320 320 319 318 318 318 319 319 317 311 308 308 308 307 307 306 306 307 308 311 313 314 316 319 320 319 319 319 319 320 321 321 320 319 319 321 322 323 323 322 321 321 322 322 321 322 323 323 323 323 321 320 320 320 320 320 320 320 320 321 321 321 321 320
325 325 325 324 324 326 327 328 329 329 327 327 327 328 331 334 334 331 322 315 317 320 320 318 318 317 318 319 317 313 309 308 309 308 307 307 306 306 306 307 309 311 313 315 317 318 317 317 316 317 318 319 320 320 320 320 322 323 323 323 322 321 320 320 320 320 322 323 323 321 321 319 318 319 320 320 321 321 321 321 320 319 320 321 321
324 323 323 322 321 323 325 326 327 328 327 327 328 329 332 334 333 330 324 318 317 320 321 319 319 317 317 317 314 311 310 309 309 309 308 307 306 306 306 306 306 307 311 314 316 316 316 315 315 316 317 317 318 319 320 321 322 322 322 322 321 321 321 321 321 321 321 322 321 319 319 318 319 319 320 320 320 319 318 317 314 311 311 313 314
324 323 322 322 322 322 324 325 325 326 327 328 329 330 331 332 332 330 326 321 318 320 321 320 320 317 313 314 313 312 311 311 311 310 308 307 306 306 305 305 305 305 307 310 313 314 314 314 314 313 312 312 312 312 314 316 318 318 319 321 321 320 319 319 320 321 320 320 318 317 316 316 317 319 320 320 317 314 313 311 309 307 308 309 311
324 324 323 322 321 322 324 324 324 324 325 327 328 329 330 330 330 329 327 323 319 319 320 320 320 317 313 314 315 314 314 312 310 309 309 307 306 305 305 305 305 305 305 306 308 309 309 309 309 307 307 307 307 306 306 308 308 308 309 313 316 317 317 317 318 319 317 314 311 312 313 314 315 317 317 315 311 308 307 306 306 307 308 309 313
325 324 324 324 322 322 323 324 324 323 323 325 327 328 329 330 329 328 327 325 320 318 318 318 318 315 313 316 316 316 316 314 311 309 309 307 306 306 305 305 305 305 306 306 306 306 306 306 306 306 306 306 306 306 305 305 305 305 305 305 307 309 310 311 312 311 309 306 305 306 308 309 311 311 310 308 306 305 305 305 305 306 306 307 313
325 324 324 324 323 323 323 323 324 324 324 324 325 327 328 329 329 327 326 325 321 317 317 317 316 314 314 317 317 317 317 315 310 309 310 309 306 306 306 305 306 305 305 306 306 306 306 306 306 306 306 306 306 306 306 306 306 306 306 306 305 306 306 306 306 305 305 304 304 304 304 305 305 306 305 304 304 304 304 304 304 304 304 305 310
323 323 323 322 323 323 323 323 323 323 323 323 323 325 327 328 328 326 325 324 321 318 319 318 316 314 315 316 316 318 317 314 310 309 311 310 307 306 307 307 307 307 306 306 306 306 306 306 306 306 306 306 306 306 306 306 306 306 306 306 305 305 305 305 305 305 304 304 304 304 304 304 304 303 303 303 303 303 303 303 302 303 303 302 307
320 320 320 319 321 322 322 323 323 322 322 323 324 326 328 327 326 325 325 324 322 319 318 317 316 316 316 316 316 318 317 313 311 311 311 311 308 307 308 309 308 308 307 307 307 306 307 306 306 307 307 306 306 306 306 306 306 306 306 305 305 305 305 305 305 304 304 304 304 304 303 303 303 303 303 303 302 302 302 301 301 302 302 301 303
315 317 317 318 319 321 322 322 323 324 323 323 324 326 327 326 326 325 324 324 322 320 317 315 315 315 315 317 316 317 318 314 312 311 311 311 310 309 310 309 309 309 309 309 308 307 307 307 307 307 307 307 306 306 306 307 306 306 306 305 305 305 305 305 305 304 304 304 304 304 304 304 304 303 303 303 302 302 301 301 302 302 302 302 301
318 319 320 320 320 321 323 322 323 324 324 325 324 324 324 324 325 325 325 325 322 321 319 316 316 315 315 317 316 317 318 314 313 312 311 312 312 312 312 311 311 311 311 310 310 309 308 308 307 308 307 307 307 307 306 306 306 306 306 306 306 306 305 305 305 305 305 305 305 305 305 305 305 305 304 304 303 302 303 303 304 304 304 304 304
316 317 318 317 316 319 323 323 324 325 326 328 326 325 324 324 324 324 324 324 323 320 319 319 317 315 315 317 316 317 317 315 314 313 313 313 313 313 314 313 312 312 312 312 312 312 311 310 309 309 308 308 307 308 307 307 307 307 306 307 307 306 306 306 307 306 307 307 306 307 307 307 307 306 306 306 305 304 305 306 305 306 306 305 305
312 312 315 317 317 320 323 323 325 326 327 329 328 327 326 324 325 323 322 323 322 320 319 320 318 315 316 319 317 317 318 316 315 314 314 314 314 315 315 314 314 314 313 314 314 315 314 314 312 311 311 311 310 309 309 308 308 307 307 307 307 307 307 307 307 307 307 308 307 307 307 308 308 308 308 308 308 307 308 308 308 307 306 306 306
315 315 317 320 322 322 323 324 325 325 326 327 327 327 326 325 325 324 322 322 322 320 319 320 318 315 317 320 318 317 318 317 316 315 314 314 315 315 315 315 315 314 315 315 315 316 316 316 316 315 315 315 314 314 313 312 311 310 309 308 308 308 307 307 307 307 307 307 308 307 307 308 308 308 309 309 310 309 309 309 308 308 307 306 306
317 319 321 322 322 322 323 323 324 323 324 324 325 325 325 325 325 324 323 322 322 321 320 321 319 317 319 321 319 318 318 318 317 316 315 315 316 316 315 315 315 315 316 316 316 316 317 317 316 316 316 316 316 317 317 316 316 315 314 313 311 310 309 308 308 308 308 307 307 307 307 307 307 308 308 309 309 309 309 309 308 307 307 306 305
315 320 322 321 322 322 322 323 323 323 323 323 324 324 323 323 323 323 322 322 322 323 321 321 320 320 320 320 319 319 319 317 317 317 317 316 316 317 316 316 316 316 316 316 316 316 317 317 316 316 316 316 316 317 317 317 317 317 317 317 316 315 313 312 310 309 308 308 307 308 307 307 307 307 307 308 308 308 308 308 308 307 306 305 304
316 319 320 320 321 322 322 322 322 322 322 322 323 323 322 321 321 321 321 321 323 323 323 321 320 320 320 319 319 319 318 318 317 317 317 317 317 317 317 317 317 317 317 316 317 317 317 317 317 317 317 316 316 316 316 317 317 316 317 317 317 317 317 316 314 313 311 310 309 308 307 308 308 308 307 307 308 308 307 307 307 307 306 305 304
316 317 316 316 318 320 321 321 321 321 321 321 322 323 322 322 322 321 320 321 322 323 322 320 318 320 320 320 320 319 318 319 318 317 318 318 317 317 318 318 318 318 317 317 318 318 318 318 317 316 316 316 317 316 316 316 315 316 316 316 317 317 317 317 316 315 314 313 312 310 308 308 308 308 308 308 308 308 308 307 307 306 305 305 304
316 315 312 310 312 315 319 321 321 321 321 320 321 322 322 322 322 322 321 321 322 321 321 319 318 320 320 320 319 319 319 319 318 318 318 318 318 317 317 318 319 319 318 317 318 318 317 317 317 316 316 316 317 316 316 315 315 314 315 316 317 317 317 317 317 316 315 315 314 313 310 309 309 308 308 308 308 308 308 307 306 306 305 305 306
316 315 311 309 309 310 314 318 320 321 321 320 321 321 322 322 322 322 322 322 322 321 320 319 319 319 319 319 319 319 319 319 319 319 317 317 318 317 318 318 317 318 319 319 319 318 317 317 316 316 316 316 316 317 316 315 314 314 314 315 317 317 318 317 317 317 316 315 315 313 311 310 310 310 309 308 308 308 308 307 306 306 306 307 307
315 314 312 310 309 309 310 312 315 317 319 321 321 320 321 321 321 321 321 321 321 321 320 320 320 320 319 319 319 318 319 319 320 319 318 318 317 317 318 318 317 318 318 319 318 318 318 317 316 315 316 316 317 317 316 314 314 314 314 314 314 315 317 317 317 317 317 315 314 314 313 311 311 310 310 309 308 308 308 307 307 307 307 307 306
315 314 313 311 310 310 309 309 309 310 312 317 320 320 319 320 320 321 321 321 321 320 320 320 320 320 320 320 320 319 319 319 320 319 317 318 318 317 318 318 318 318 317 316 316 316 317 317 317 316 317 317 317 316 315 313 313 314 314 313 313 314 317 318 317 317 317 316 315 314 313 312 312 312 311 309 309 308 308 308 308 308 308 307 305
313 313 313 311 310 310 309 309 308 307 308 312 316 319 319 319 319 319 320 321 320 320 320 320 319 318 319 320 320 320 320 319 319 317 316 316 317 316 317 318 319 318 316 316 317 316 317 317 316 316 316 316 316 315 314 313 314 315 315 315 315 315 317 318 317 317 316 316 315 314 313 313 312 312 311 311 310 309 308 308 308 308 308 307 305
312 311 311 311 311 310 310 309 309 308 308 308 310 314 315 315 315 316 318 319 320 321 321 320 320 318 318 321 321 320 320 319 318 318 317 317 318 318 317 317 317 316 316 317 317 316 315 313 313 314 314 314 314 315 314 314 315 316 316 317 317 316 317 317 317 317 317 316 315 314 314 313 313 312 312 311 311 309 309 309 309 309 308 308 305
313 311 310 310 310 310 310 309 309 309 309 308 308 309 311 311 311 312 313 314 316 318 319 320 320 319 319 320 319 318 318 318 318 318 317 316 317 317 316 316 316 316 315 315 313 310 309 309 311 314 315 315 314 315 314 314 314 315 316 317 317 317 317 317 318 318 317 315 315 315 314 313 312 312 312 311 310 309 309 310 310 309 309 308 306
312 311 310 309 309 309 309 309 309 308 309 309 308 308 308 308 309 309 309 309 310 312 313 315 316 316 316 316 315 315 316 317 318 317 314 313 313 313 313 313 314 312 310 309 309 310 311 312 313 315 315 315 315 315 315 315 315 316 317 318 319 318 318 318 318 319 317 315 314 314 313 313 312 311 312 311 310 309 310 311 310 309 308 307 305
310 309 309 308 308 307 307 307 308 308 308 309 308 308 307 306 307 307 308 307 307 307 309 310 311 311 311 311 312 313 314 315 316 314 312 311 311 311 312 312 312 310 309 310 312 313 313 314 314 313 313 313 314 314 314 314 314 314 315 316 317 318 319 319 318 318 317 316 315 314 313 313 312 311 310 310 309 309 309 309 309 308 307 305 304
309 308 308 308 307 307 307 307 306 307 307 308 308 308 307 306 306 306 306 306 306 306 307 308 309 309 309 309 310 311 311 311 311 311 311 311 311 311 312 312 312 313 313 313 314 314 313 313 312 311 310 310 310 310 309 308 307 307 307 309 313 316 318 319 318 317 316 315 314 313 312 311 311 311 310 309 308 307 307 307 307 306 305 303 302
307 306 307 307 307 306 306 307 306 306 306 307 306 306 307 306 306 306 306 306 306 306 306 307 308 308 308 308 309 310 309 309 310 310 310 309 308 308 309 309 309 311 312 312 311 310 309 308 308 308 307 307 307 306 305 304 304 303 303 306 310 315 317 318 317 316 315 314 312 312 311 310 309 309 308 307 306 306 306 305 305 304 303 302 302
304 303 304 305 306 306 306 306 306 306 306 305 305 306 306 306 306 307 307 307 306 307 306 306 307 307 307 307 308 308 309 309 309 309 308 305 304 304 304 304 305 305 305 305 305 305 305 304 304 304 305 307 307 306 305 304 303 302 302 304 307 311 314 316 315 315 314 313 311 311 311 310 308 307 306 305 305 305 305 304 303 302 302 302 301
301 302 302 303 304 305 306 306 307 306 306 306 306 305 305 306 306 306 306 306 306 306 306 306 306 306 306 306 306 307 307 308 308 308 306 304 303 303 303 303 303 303 304 304 305 307 306 305 305 305 306 307 308 307 307 306 305 304 304 305 308 311 312 313 314 313 312 311 310 309 309 309 307 306 305 305 305 305 305 303 302 302 302 301 301
301 301 301 301 302 302 303 304 305 306 306 306 306 306 306 306 306 306 305 306 305 305 306 306 306 306 306 306 307 307 307 307 307 307 307 306 305 304 304 303 302 302 303 305 306 307 308 308 308 308 308 308 309 308 308 308 308 307 306 306 309 312 312 312 311 311 310 309 309 308 308 307 306 306 306 306 305 305 304 303 302 302 301 301 301
300 301 301 301 301 301 301 301 302 303 304 305 305 305 305 306 306 306 306 306 305 305 305 305 306 306 306 307 307 308 308 308 308 308 308 307 306 305 304 304 303 303 302 302 303 306 308 309 309 309 309 309 309 309 309 309 309 309 308 306 307 309 311 311 311 310 309 308 308 308 308 307 306 306 305 304 304 303 303 302 302 302 301 301 301
300 300 300 300 300 301 300 300 300 300 301 301 302 303 304 304 304 305 305 306 306 305 305 305 305 305 305 306 306 306 307 307 307 307 307 307 306 306 306 305 305 304 303 302 302 303 305 307 308 309 309 309 310 310 310 310 310 310 309 308 306 306 308 309 310 310 309 308 307 306 306 305 305 304 304 303 302 302 301 301 301 301 300 300 299
299 299 299 299 300 300 300 300 300 300 300 300 300 301 302 303 303 303 304 304 305 305 305 305 304 304 305 305 305 305 305 305 305 305 306 307 307 307 308 307 307 306 305 305 304 302 302 303 305 307 308 309 310 310 310 310 310 310 309 309 307 305 305 307 308 308 308 307 306 305 304 303 303 302 302 301 301 300 300 300 300 299 298 297 297
298 298 298 298 299 299 299 299 299 300 301 300 300 300 301 302 302 302 303 303 303 304 304 305 304 304 305 305 305 305 305 305 305 304 304 306 307 307 308 308 307 306 306 305 304 303 302 302 303 306 308 309 309 310 310 310 310 309 309 308 306 305 304 304 305 306 306 306 305 304 304 302 301 301 300 300 300 300 300 299 297 296 295 295 294
297 298 298 298 298 298 298 299 299 299 300 300 300 300 301 301 301 302 302 302 302 303 303 304 304 304 304 304 305 305 305 305 304 304 304 304 305 305 305 304 304 304 304 304 303 303 303 303 305 307 308 308 308 309 309 309 309 309 308 307 306 305 304 304 305 305 306 305 303 303 302 302 301 300 300 299 299 298 297 295 295 295 294 294 294
297 297 298 297 298 298 298 298 298 298 298 299 299 300 300 301 301 301 301 302 302 302 302 303 303 304 304 304 304 304 305 304 304 304 304 304 304 304 303 303 302 303 303 303 303 303 303 304 305 307 307 307 307 307 308 308 308 308 307 306 305 305 304 304 305 305 304 303 302 300 299 299 298 297 297 296 296 295 295 295 295 295 295 294 294
297 298 298 298 298 298 298 298 298 298 298 298 299 299 300 300 300 301 302 302 302 302 302 302 303 303 303 303 304 304 304 304 304 304 304 304 304 303 303 303 303 302 302 303 303 303 304 304 305 306 306 305 305 305 306 307 307 307 306 305 304 304 304 303 302 301 300 299 298 296 295 295 295 295 296 296 296 295 295 294 294 294 294 294 294
298 298 298 298 298 298 298 298 298 298 298 298 298 299 299 300 300 300 301 302 302 303 303 302 302 303 303 303 303 303 304 303 303 304 304 304 303 303 302 303 303 303 302 303 303 304 305 306 306 306 305 304 303 303 305 306 306 305 304 304 303 303 301 300 298 297 296 295 295 294 294 295 295 295 295 294 294 294 294 294 294 294 294 293 293
297 298 298 298 298 298 298 298 297 297 297 297 298 298 298 299 299 299 300 301 301 302 302 303 303 303 303 303 303 303 303 303 303 303 303 302 302 302 302 302 302 302 302 302 304 305 306 306 306 305 305 304 302 303 304 305 305 304 303 302 301 299 297 296 295 295 295 295 295 295 295 295 294 294 293 293 293 293 293 294 293 293 293 292 292
297 297 297 297 297 297 297 298 297 298 298 298 298 298 298 298 298 299 299 299 300 300 301 301 302 302 303 303 302 303 302 302 302 302 302 302 302 302 302 302 302 302 302 302 304 305 305 305 305 304 304 303 303 304 304 304 303 302 300 298 296 296 295 295 296 296 296 296 296 295 295 294 293 293 293 293 293 293 293 293 292 292 292 291 291
295 295 296 296 296 296 297 297 297 298 298 298 299 298 298 298 298 298 298 299 299 299 299 300 300 301 302 302 302 302 302 302 302 301 301 301 302 302 302 302 302 302 302 302 303 303 303 304 304 304 304 303 303 304 303 303 301 299 297 295 295 295 296 296 296 296 296 296 295 295 294 293 293 293 293 293 293 293 292 292 292 291 291 291 290
292 292 293 294 295 295 296 296 296 297 297 298 298 298 298 298 298 298 298 298 298 299 299 299 299 299 300 301 301 301 301 301 301 301 301 301 302 301 301 301 302 302 302 303 303 303 303 304 304 304 304 304 303 302 301 300 299 297 295 295 295 296 296 296 296 296 296 295 294 294 293 293 293 293 293 293 292 292 292 292 292 291 291 290 290
Wind_Speed
36 32 30 28 26 25 28 31 32 29 24 21 20 22 24 23 22 21 18 17 15 14 13 13 13 12 10 8 6 5 3 3 4 3 5 8 9 11 12 10 9 8 8 7 7 7 8 8 7 7 8 9 9 10 12 13 13 15 16 15 15 15 15 14 14 12 11 9 7 6 6 7 8 8 8 8 8 9 10 12 14 14 13 15 16
36 35 32 29 28 28 30 33 33 31 27 22 23 25 27 24 23 21 18 18 16 14 13 13 11 9 9 8 7 6 4 4 3 2 7 10 11 11 12 12 11 9 8 7 6 5 5 5 6 7 8 9 9 9 11 12 12 14 15 16 16 16 15 15 15 14 12 10 8 7 6 7 8 8 8 7 6 6 7 10 14 16 15 14 13
37 37 36 32 31 31 33 33 33 32 29 25 25 27 28 26 24 22 19 19 17 15 14 13 11 10 10 9 8 7 6 5 3 2 6 9 11 11 10 10 10 9 9 8 8 7 6 6 5 6 7 7 6 7 9 11 11 12 14 15 16 16 15 15 14 14 13 10 9 8 7 7 7 7 7 5 5 4 5 7 11 15 17 15 12
38 38 40 38 36 35 34 34 33 33 31 28 28 29 30 29 27 24 21 21 18 16 15 13 12 13 12 10 9 7 5 6 4 4 8 8 8 9 8 8 8 8 8 8 9 9 8 6 5 5 5 5 4 6 7 8 9 11 12 13 15 15 12 13 14 13 12 10 9 9 8 7 6 5 5 5 5 4 5 5 6 9 13 15 14
42 41 42 43 43 40 35 34 35 36 35 33 32 32 31 31 29 25 22 22 20 17 17 16 15 16 15 14 12 10 7 6 4 6 9 9 8 7 7 7 8 8 8 8 7 7 8 7 5 5 6 6 6 6 6 6 7 8 9 10 12 12 12 14 15 13 12 11 10 7 6 6 5 6 5 5 5 5 5 6 6 4 7 11 13
46 44 44 44 44 42 38 36 38 40 38 36 34 33 32 31 29 25 23 24 21 19 19 18 17 16 16 15 14 12 9 5 4 8 11 10 8 7 6 6 7 9 9 8 6 6 7 7 6 5 6 7 7 7 7 7 6 7 7 8 8 10 11 12 12 11 12 12 11 9 6 4 4 6 6 5 6 6 7 7 6 5 4 5 7
42 42 43 44 44 43 41 38 40 42 40 38 36 34 33 31 29 26 24 24 22 20 20 19 17 15 13 12 11 10 8 7 8 9 10 9 9 8 7 7 7 8 9 10 7 5 4 5 4 4 4 6 8 7 7 7 6 7 7 7 7 7 8 8 9 9 10 10 10 10 8 6 6 7 7 7 8 9 9 8 7 6 5 4 5
42 42 42 43 43 43 42 39 38 40 41 39 37 35 34 32 29 26 25 25 23 21 20 19 17 15 13 12 10 8 9 11 12 10 9 8 8 8 8 8 8 8 8 9 9 7 5 4 3 3 5 6 7 6 5 4 5 6 6 5 4 4 5 7 8 8 8 8 8 8 7 5 6 7 6 6 7 8 8 7 7 7 6 6 7
42 42 41 39 38 39 39 38 37 38 40 39 38 36 35 33 30 27 26 25 24 23 22 20 17 14 13 12 12 11 11 13 13 10 9 8 8 8 8 9 9 9 8 8 9 8 7 5 4 4 5 6 6 4 4 4 5 5 5 4 2 3 4 6 7 7 7 6 6 6 4 3 4 4 3 3 3 4 4 4 5 6 7 7 8
34 36 38 36 34 34 34 35 36 36 38 39 38 36 35 33 30 29 28 26 25 26 25 22 19 15 14 14 15 14 14 14 13 11 10 9 9 10 9 10 10 9 8 9 9 9 8 6 5 5 4 4 4 4 4 5 4 4 4 4 4 3 3 2 3 4 4 3 3 4 3 2 3 2 2 2 1 3 5 7 9 10 9 7 7
30 31 33 32 32 32 30 32 35 36 37 38 38 36 35 34 31 30 29 26 26 27 27 24 20 17 16 18 17 15 14 14 14 12 11 11 11 11 11 11 10 9 9 9 9 8 6 5 4 3 3 3 3 3 3 4 3 2 2 3 2 2 2 2 2 3 3 2 2 2 3 3 3 3 3 3 6 9 10 11 12 12 10 8 7
27 26 26 28 30 30 29 31 34 35 36 38 39 37 36 35 33 31 29 27 27 29 29 26 22 20 19 18 17 13 13 14 14 13 13 13 13 13 13 12 12 11 10 9 8 7 5 5 5 5 6 7 6 6 6 5 5 4 4 3 3 2 2 2 2 2 2 2 4 4 4 4 4 5 6 8 11 11 11 11 12 10 8 7 6
23 22 23 24 27 29 29 31 34 36 37 38 39 39 38 37 35 33 30 29 28 28 29 27 24 22 20 18 16 13 12 13 12 12 13 14 15 14 14 13 13 12 11 10 9 8 7 7 8 8 8 9 9 9 10 10 9 9 8 7 5 4 3 3 2 2 2 2 2 3 4 5 6 7 8 9 9 8 8 8 9 9 8 7 4
20 19 20 22 25 28 29 31 34 36 38 38 39 39 39 38 36 33 31 30 29 29 30 28 24 22 20 18 16 15 13 13 13 13 14 15 15 15 15 14 14 14 13 12 10 10 9 8 8 8 8 8 8 8 9 9 9 8 8 7 7 5 4 3 2 2 1 1 1 1 2 3 4 5 6 6 5 6 6 6 6 6 6 5 2
20 19 18 19 21 25 28 30 34 37 38 39 40 41 40 38 36 34 33 32 30 30 29 24 21 21 20 18 16 17 17 14 14 14 15 17 17 16 17 17 16 15 14 13 12 11 10 9 9 8 8 8 8 8 8 8 7 7 6 5 5 5 4 3 3 3 2 1 1 0 0 1 2 3 3 4 4 4 5 6 7 6 4 4 2
21 19 18 18 19 21 22 23 27 33 38 40 40 40 38 35 34 36 36 35 33 32 28 22 19 20 20 19 18 20 21 17 16 16 16 18 19 19 19 18 16 16 14 13 12 11 11 10 9 8 8 8 8 9 8 7 6 5 5 5 5 5 5 4 4 4 4 3 2 1 1 0 0 1 2 3 4 5 6 7 8 8 7 7 4
20 19 17 16 17 19 19 17 17 22 29 36 37 37 38 36 35 35 34 34 32 29 28 25 21 20 22 23 20 23 26 20 18 19 17 18 19 19 18 17 16 15 14 13 12 11 11 10 9 8 8 7 8 8 7 6 5 4 5 5 5 5 5 5 5 5 5 4 4 3 2 1 1 2 3 4 4 5 6 7 8 9 9 9 7
20 17 15 13 11 11 12 13 14 15 19 25 32 37 39 37 37 34 29 30 29 25 25 25 22 23 26 26 21 23 28 23 18 19 19 19 19 18 17 17 15 14 13 12 11 10 10 9 8 8 7 7 6 6 6 5 4 4 5 5 5 5 5 5 5 5 4 4 4 3 3 3 3 4 5 5 5 4 5 7 8 9 10 10 10
16 13 11 7 5 4 4 5 9 11 11 12 21 31 35 36 39 38 33 33 31 28 29 29 27 27 28 29 23 21 28 27 20 19 21 20 19 18 17 16 14 13 13 12 10 9 8 8 7 7 7 6 5 5 4 4 4 3 3 4 4 4 3 3 3 3 3 3 3 2 2 2 3 4 4 5 5 4 5 6 7 8 10 11 12
14 12 9 6 4 3 4 5 6 6 5 5 9 17 25 33 38 39 40 40 34 31 33 33 30 29 28 30 27 22 29 32 23 20 21 20 20 19 18 15 14 12 11 11 9 7 7 6 6 5 5 4 4 3 2 2 2 2 2 2 3 2 2 2 1 0 0 0 0 0 1 0 1 2 3 4 5 5 6 6 6 7 9 10 12
15 14 12 10 8 6 6 6 5 4 3 4 6 10 17 25 28 29 34 37 34 33 35 34 31 29 28 31 30 24 28 33 28 22 22 21 21 21 19 17 14 11 10 10 8 7 6 6 5 4 4 4 4 4 3 3 3 3 3 3 4 4 3 2 3 3 3 3 3 3 4 4 3 1 2 3 4 4 5 6 7 8 9 10 12
14 14 13 12 12 10 8 6 5 5 5 5 7 10 14 18 20 23 27 31 33 34 37 37 33 29 29 32 31 27 28 33 32 27 24 23 24 23 21 19 16 13 10 9 8 7 6 5 4 3 3 4 4 4 3 3 4 4 5 6 7 7 6 6 6 5 5 5 6 6 6 6 5 5 4 3 4 4 4 5 6 8 9 11 13
13 13 11 10 11 12 10 8 6 5 5 5 7 10 13 13 15 19 23 27 30 32 34 36 33 29 30 33 31 29 29 32 32 30 29 29 28 27 25 22 18 15 11 10 9 8 8 7 5 5 4 4 2 0 1 3 4 4 5 6 8 9 9 9 9 9 8 8 8 8 8 8 7 7 6 5 6 6 6 6 6 8 9 10 13
12 11 9 8 9 10 10 9 6 5 4 4 5 8 12 14 14 16 19 23 26 27 29 32 31 30 31 33 33 31 31 32 31 30 32 32 30 29 27 24 20 16 14 12 11 11 10 9 8 7 6 5 3 3 5 7 7 7 7 8 9 10 10 11 10 11 11 11 11 11 11 11 9 8 7 7 6 7 7 7 7 8 9 11 12
10 8 6 5 6 7 8 8 7 5 5 6 7 9 12 14 16 19 19 21 24 24 25 28 29 28 29 30 30 29 30 31 31 30 29 28 29 29 26 23 21 18 16 15 15 14 13 12 10 9 8 7 6 7 10 13 13 13 12 11 11 12 13 13 12 12 13 13 13 13 13 14 12 10 9 9 8 8 7 7 8 8 9 12 13
10 8 6 5 4 6 8 8 7 6 5 6 8 10 13 15 18 20 20 21 24 25 24 26 29 29 28 26 25 24 26 29 30 31 28 25 28 30 26 23 22 22 20 18 17 16 15 13 11 11 10 10 11 13 15 16 16 17 17 15 14 15 16 17 16 15 15 14 14 14 15 15 14 12 11 11 9 9 8 8 9 10 11 12 14
10 9 9 7 5 6 7 8 8 7 6 6 8 10 12 15 18 20 20 20 22 26 28 29 33 34 30 26 24 24 26 26 28 30 27 24 25 24 22 21 22 23 24 22 20 18 16 14 13 13 14 15 15 16 18 19 18 17 17 17 16 17 19 20 20 19 18 17 16 16 17 17 16 14 14 12 10 10 9 9 10 10 12 13 14
13 12 11 9 8 7 8 8 8 7 6 7 7 9 11 14 17 19 21 19 18 22 28 29 28 29 29 28 26 26 27 27 26 24 20 21 22 20 17 17 18 22 24 20 18 16 14 14 15 15 17 17 16 18 21 22 20 17 17 17 18 20 22 23 24 23 21 20 19 19 19 18 17 16 15 14 12 11 11 11 11 12 13 14 15
15 13 11 10 10 10 9 8 6 5 5 7 9 9 9 11 15 18 21 22 18 18 23 24 18 15 18 21 22 23 26 28 26 21 16 19 22 20 19 18 15 16 17 15 15 14 13 14 16 17 18 18 19 21 22 20 18 17 17 19 20 23 24 24 26 27 25 23 22 22 21 20 19 18 17 16 14 13 12 12 12 13 15 16 16
13 14 13 12 11 10 9 7 7 6 5 6 9 10 9 8 10 13 18 23 23 20 21 23 20 16 16 17 19 20 22 23 23 20 20 23 23 21 22 21 18 15 14 14 15 14 14 16 17 18 19 20 21 22 21 19 19 19 20 22 24 26 26 26 27 29 29 27 25 25 24 23 21 20 19 18 17 16 15 14 14 15 16 18 18
10 10 12 14 13 12 10 8 8 7 5 5 5 7 7 6 5 8 12 18 22 22 22 24 24 23 23 22 22 21 21 21 20 19 21 21 20 20 21 19 18 16 14 12 11 12 13 15 16 16 17 17 18 19 19 20 21 21 21 22 24 27 28 29 29 30 32 31 28 28 27 26 25 23 21 20 19 17 15 15 16 17 19 19 19
8 10 10 12 13 13 12 10 8 5 3 2 2 3 5 7 6 7 8 10 12 15 18 20 20 22 24 24 23 21 21 20 18 18 20 19 19 20 18 15 13 13 13 12 11 11 12 13 13 14 14 14 15 17 18 20 20 21 21 22 24 25 28 29 30 30 32 32 30 30 30 29 28 25 22 21 19 17 16 17 19 20 21 22 21
11 12 14 15 15 14 12 10 7 4 1 0 1 1 3 6 8 9 9 9 8 9 11 13 14 16 16 16 16 17 18 19 18 19 19 17 15 16 16 15 14 13 12 11 11 11 12 12 12 13 15 16 17 17 18 20 21 21 22 23 23 24 26 28 30 31 33 32 32 32 32 32 31 26 22 22 20 18 18 20 21 22 23 23 22
16 16 17 18 18 17 16 14 11 7 3 1 1 1 0 2 5 7 7 7 7 9 12 13 14 15 15 16 18 20 21 22 21 18 15 12 12 13 13 13 12 11 10 9 10 11 11 12 12 13 15 16 17 18 19 20 22 24 25 24 24 24 25 26 28 31 33 33 33 33 33 33 30 25 22 22 20 18 19 20 22 23 24 23 22
17 15 14 16 15 15 14 15 15 12 8 5 3 2 2 2 4 4 3 3 5 7 10 13 15 16 15 15 18 19 19 19 18 16 14 13 13 13 13 13 12 11 10 10 10 11 11 12 12 14 15 16 16 17 18 19 21 23 24 24 22 22 23 22 25 30 33 32 31 31 31 30 26 22 22 22 20 19 20 21 23 24 23 22 21
19 18 12 8 10 13 13 12 13 12 10 8 7 5 2 2 4 4 3 2 3 6 9 11 13 14 13 13 16 17 17 17 17 16 15 14 13 14 14 14 15 14 13 13 12 11 12 12 13 14 15 16 16 15 15 17 18 19 19 18 17 17 17 18 22 28 29 28 27 29 31 30 25 22 22 21 20 21 22 23 23 23 22 21 21
19 20 17 12 10 9 9 8 8 6 6 5 7 5 3 1 1 3 5 4 4 6 8 9 11 12 12 12 14 14 14 14 15 13 11 10 11 11 11 12 12 11 11 10 10 9 9 10 12 13 14 14 15 15 15 15 15 16 16 16 15 13 13 15 19 23 25 26 27 30 31 28 23 21 20 20 21 22 23 23 23 22 22 21 21
17 17 16 16 15 12 10 9 9 6 4 6 7 7 6 4 3 2 3 5 4 4 8 10 11 12 11 11 13 13 12 12 12 10 8 7 7 7 8 9 9 9 9 8 8 8 10 12 12 13 14 15 16 17 16 14 13 14 14 14 13 12 12 14 16 19 22 24 25 26 25 22 21 22 23 23 24 23 23 23 23 23 23 22 23
17 17 15 15 16 16 14 13 12 12 13 14 13 11 11 10 7 6 5 4 3 2 4 7 9 10 10 11 12 12 11 10 10 9 8 7 6 6 7 8 8 8 9 10 10 10 11 13 14 15 16 17 18 18 18 16 15 14 13 12 12 12 12 14 16 19 22 24 24 23 22 22 23 25 25 25 24 24 23 23 24 24 24 25 26
18 17 16 16 15 15 15 15 15 14 14 15 13 11 12 13 13 12 12 10 8 6 3 2 4 6 7 9 10 10 9 9 9 9 9 8 8 9 9 9 8 7 9 10 11 12 13 13 14 17 18 19 20 20 19 19 17 16 15 14 13 13 14 15 17 19 21 23 24 24 24 25 25 26 25 24 24 24 24 24 24 24 25 27 28
19 19 18 18 17 16 15 15 15 15 15 15 14 12 11 11 12 16 18 18 16 13 9 7 7 6 6 8 9 9 9 9 10 11 11 10 10 11 11 10 10 11 12 13 13 14 14 14 15 17 18 20 21 21 21 20 19 18 17 16 14 13 14 15 17 18 20 21 22 23 23 23 24 24 24 24 24 23 22 22 23 25 27 29 31
21 20 19 20 20 20 18 17 16 16 16 16 16 14 13 13 14 15 17 18 18 18 16 14 13 13 11 11 10 11 10 10 11 11 11 11 11 12 13 13 14 15 16 16 16 15 15 16 17 18 19 20 22 22 21 20 19 18 18 17 15 13 13 15 16 18 20 21 21 21 21 22 22 22 23 23 22 21 22 23 26 28 29 31 32
25 24 22 20 21 21 21 20 19 18 18 18 18 18 17 17 18 18 17 17 19 21 21 18 15 14 14 13 14 15 14 13 12 11 11 12 11 11 13 14 16 17 18 19 19 19 19 19 19 19 20 20 21 21 20 19 18 18 18 17 15 13 13 14 16 18 19 20 21 21 22 22 21 21 22 22 23 24 26 28 29 29 30 31 32
27 27 26 25 25 25 24 23 22 21 20 19 19 19 21 22 22 21 20 20 21 21 22 21 19 18 17 16 16 17 17 16 16 15 15 14 13 13 14 14 15 16 18 20 21 22 22 21 20 19 19 20 20 20 20 19 19 19 18 17 15 14 13 14 16 17 19 20 21 22 22 23 23 23 24 26 27 28 28 28 28 28 29 30 30
26 27 27 29 30 30 30 29 27 25 24 21 17 16 18 20 22 23 24 24 24 24 23 22 19 18 18 18 18 18 18 18 19 19 20 19 18 19 19 18 17 17 18 20 21 23 24 23 21 20 20 20 20 20 20 20 20 19 17 16 15 15 15 15 17 18 20 21 21 22 22 23 23 24 25 26 26 26 27 26 26 27 28 28 27
26 26 26 28 29 31 32 33 32 31 30 28 22 18 16 16 16 18 21 22 25 27 27 26 24 22 21 21 21 21 21 20 20 21 22 22 22 22 21 20 21 21 21 21 22 23 24 24 23 22 22 21 20 19 19 19 19 18 16 16 16 16 17 17 17 18 18 19 20 20 19 19 20 21 23 24 25 25 25 24 24 24 25 25 25
28 28 27 27 28 30 31 32 33 33 32 32 30 27 24 21 18 15 15 16 18 20 21 22 23 23 22 21 21 22 21 20 20 21 22 22 22 22 21 21 21 20 20 20 20 22 25 25 23 22 21 19 18 18 19 19 18 17 16 16 17 18 17 17 16 15 15 15 16 16 17 17 19 20 21 22 22 22 21 21 22 23 24 25 26
28 28 28 28 29 30 31 32 33 33 31 32 32 32 31 29 26 23 19 18 17 16 15 16 17 18 18 16 17 19 19 19 20 21 22 22 21 20 21 22 22 22 21 19 18 20 23 22 20 20 19 18 18 18 19 18 18 17 17 17 17 16 15 14 13 12 13 13 15 16 17 17 18 18 18 19 19 20 21 23 24 25 25 25 25
31 30 29 29 30 31 32 33 33 32 31 31 32 33 33 32 31 30 27 25 24 22 20 18 17 17 18 17 17 17 18 19 19 21 22 22 20 19 19 19 21 22 20 18 17 18 19 18 19 19 19 19 18 18 17 17 17 17 17 16 15 13 12 12 12 12 13 14 15 16 16 17 17 18 18 19 20 22 23 24 23 23 23 23 23
33 33 34 34 34 34 33 34 34 33 32 32 33 33 34 33 32 32 32 31 31 29 28 26 24 21 20 20 19 18 18 18 18 18 20 21 21 20 19 18 18 19 19 19 18 18 18 18 18 18 18 17 16 15 15 15 15 15 15 14 13 13 12 12 12 12 13 14 15 15 16 17 17 18 18 20 21 22 22 21 20 20 21 22 24
31 32 34 35 36 36 37 36 35 33 33 33 33 33 34 34 32 31 31 32 34 34 34 33 31 29 26 22 19 19 19 20 20 19 19 20 20 20 17 16 16 18 19 19 18 17 17 18 17 15 15 14 14 13 13 14 14 14 14 13 12 12 12 11 12 13 13 14 14 15 15 16 16 17 18 19 19 19 18 19 20 21 22 24 26
Wind_Direction
167 172 178 183 185 186 183 178 178 185 194 203 208 202 192 186 180 172 169 171 165 153 139 133 138 146 157 161 162 165 178 183 160 142 134 124 120 127 142 159 164 159 154 165 193 211 217 218 216 222 230 230 227 225 228 234 239 240 236 233 236 241 238 223 208 205 205 205 214 232 242 248 257 260 261 259 258 257 254 251 247 245 244 246 243
166 172 180 184 185 185 181 180 182 188 197 207 208 197 189 188 187 181 177 175 166 151 140 137 137 141 151 159 166 167 183 217 207 156 147 145 140 131 137 151 156 157 157 167 188 197 202 203 202 210 216 220 224 220 219 225 233 238 237 235 235 234 232 225 212 204 207 210 219 238 256 265 268 271 278 276 267 267 268 259 249 241 236 239 245
169 172 178 183 186 185 184 186 191 195 200 203 203 198 192 194 197 192 187 180 168 152 145 144 141 145 156 167 177 175 182 204 206 183 170 158 155 153 148 156 171 182 186 198 209 205 201 201 201 205 209 215 221 219 219 222 228 235 238 238 236 229 225 225 215 209 213 215 231 249 253 262 268 272 281 276 267 287 300 281 256 243 235 231 237
171 173 177 181 184 187 192 196 195 195 198 199 201 202 197 198 202 197 191 186 173 157 154 155 151 157 171 183 192 197 198 193 175 178 194 189 180 181 184 185 195 199 192 196 206 206 197 189 187 187 191 194 195 203 210 217 223 228 231 232 233 231 230 228 218 215 220 223 238 250 248 258 267 269 272 266 273 300 327 327 294 257 241 235 236
173 175 178 181 185 190 197 200 195 193 197 200 201 203 201 202 203 199 192 187 177 165 163 166 165 171 183 192 199 205 207 199 178 159 169 179 184 190 194 183 182 180 168 164 174 183 177 168 166 170 174 171 168 176 181 189 202 210 217 221 227 232 232 230 223 219 223 225 230 239 244 254 263 274 282 279 278 294 319 333 335 302 258 245 244
178 179 180 182 186 189 193 196 193 193 198 201 202 204 203 202 203 201 193 186 181 173 172 178 181 186 191 195 198 203 207 205 178 146 141 147 153 157 165 167 176 180 178 175 162 158 162 156 154 162 171 167 159 158 157 160 171 182 195 200 208 218 221 225 227 223 221 220 221 224 226 241 265 282 293 297 292 292 303 316 330 334 302 266 257
180 183 184 185 185 186 188 192 192 194 197 198 201 203 202 201 203 203 195 189 187 181 180 186 191 195 200 200 197 203 206 182 157 142 131 128 129 135 148 160 175 184 192 197 185 169 158 149 151 149 154 157 154 156 153 150 161 169 177 182 190 206 213 218 224 225 223 222 225 228 230 244 266 279 286 293 292 291 296 297 299 310 315 303 288
183 186 191 191 189 189 190 192 193 194 194 195 198 201 201 200 200 203 199 194 193 190 188 191 194 197 199 196 194 205 203 171 154 142 133 131 127 128 134 142 154 166 178 186 184 183 176 172 176 135 130 146 153 157 153 149 162 162 158 164 178 198 209 218 222 225 227 227 229 233 236 246 260 270 272 278 286 293 300 290 275 279 290 297 293
187 190 194 196 196 196 195 194 194 195 195 197 199 200 201 199 200 203 201 198 198 196 194 194 198 199 193 191 191 194 188 168 157 151 145 144 134 126 125 127 139 155 165 166 164 169 177 188 190 160 137 139 146 150 140 133 145 147 138 136 150 176 196 213 219 218 222 225 220 220 226 240 252 255 249 255 274 302 318 316 300 285 278 279 283
191 193 196 199 203 203 200 196 196 197 198 200 201 201 201 199 200 203 202 201 200 199 199 199 201 198 190 192 190 182 177 170 165 162 157 151 138 127 123 120 126 140 154 160 160 161 169 173 174 175 178 178 177 170 157 147 142 138 130 124 122 120 129 159 197 201 201 196 188 198 218 240 251 245 227 239 300 325 319 319 320 314 308 303 296
196 198 199 203 209 209 205 201 200 201 201 203 204 204 204 204 204 206 205 203 200 199 200 201 201 198 193 193 188 177 174 177 175 172 166 156 141 130 125 123 123 125 136 151 162 167 165 160 158 164 167 183 194 185 182 187 184 180 170 160 157 128 102 105 130 153 153 155 197 234 258 264 269 267 257 280 306 313 308 307 316 322 328 340 345
196 198 203 206 210 212 208 204 204 204 204 206 208 209 209 209 209 209 206 202 200 200 201 201 199 199 195 188 185 180 181 186 182 175 169 156 143 135 129 126 126 127 130 136 145 150 136 121 115 109 107 108 109 103 100 108 111 111 126 148 180 189 173 168 178 187 204 253 275 276 274 270 273 273 276 289 303 312 311 309 318 326 338 357 19
190 194 203 209 211 213 211 208 207 209 210 212 214 215 214 213 213 212 209 205 202 202 203 202 199 199 193 185 187 190 192 196 190 178 171 157 144 137 129 125 125 125 129 131 132 131 124 117 111 105 105 103 101 100 94 92 90 89 92 98 113 135 146 165 190 215 229 260 281 268 266 267 268 272 278 289 301 312 315 312 315 321 334 358 37
180 188 200 209 215 219 221 219 216 217 217 218 220 220 218 216 213 212 210 206 203 204 205 203 199 194 188 185 192 199 201 205 198 183 171 158 145 134 124 120 119 120 123 126 126 126 125 121 115 108 104 100 95 97 97 93 89 84 83 84 90 100 102 109 130 139 129 105 126 210 257 266 272 277 281 291 301 309 314 315 322 326 332 358 34
164 175 186 196 206 214 221 225 225 225 224 224 224 223 219 213 208 206 207 205 202 201 200 198 193 189 187 188 197 206 209 209 203 189 172 159 147 135 127 121 118 118 119 120 121 123 123 118 114 109 103 98 93 94 97 94 89 84 79 75 74 79 81 81 89 92 88 89 109 201 296 276 283 292 295 308 321 329 335 338 349 359 4 22 52
155 169 181 189 195 203 210 219 225 228 229 227 223 219 214 209 206 206 209 210 207 204 203 200 192 189 196 199 201 208 211 211 207 193 173 162 151 138 133 128 123 120 118 119 119 118 118 115 113 110 101 96 95 97 96 89 81 74 69 64 63 69 73 74 80 84 89 92 87 81 88 120 287 330 337 348 351 351 353 353 357 5 10 17 36
148 160 170 183 193 200 204 210 219 226 228 226 223 220 216 213 210 208 210 210 207 205 204 199 192 196 208 209 204 207 210 214 212 195 176 168 159 147 143 140 133 128 121 119 118 116 116 113 111 110 101 92 89 92 93 87 76 63 59 58 59 62 63 68 75 76 85 91 83 76 76 74 63 34 7 2 5 3 2 2 3 8 9 10 12
142 145 146 155 168 181 198 212 220 223 227 229 228 227 224 220 215 208 209 210 204 203 204 201 199 203 209 211 207 208 211 215 217 202 184 176 170 162 159 154 145 138 129 123 117 111 111 112 110 108 103 95 86 82 84 84 75 58 53 52 55 62 64 70 74 68 73 85 82 75 71 65 56 37 16 4 5 12 18 18 17 16 13 10 4
140 135 128 130 135 147 193 231 235 231 238 240 233 230 228 228 225 220 219 218 214 216 223 223 216 206 208 212 210 210 212 216 220 211 199 189 182 177 175 169 160 152 141 132 125 111 104 105 106 105 102 101 100 93 84 80 76 58 48 45 45 60 67 66 72 71 68 74 75 72 68 65 57 40 22 8 4 3 10 20 22 13 7 2 356
140 135 126 127 135 167 204 227 240 242 262 270 251 240 234 232 232 230 227 224 221 224 231 231 218 209 213 214 210 208 212 214 216 214 207 201 194 190 188 184 177 169 155 144 138 128 117 109 105 102 95 92 95 93 72 61 62 43 31 25 9 18 37 29 24 242 235 307 330 293 303 302 69 60 39 18 9 359 357 7 11 6 -0 352 348
137 135 135 143 149 159 182 195 204 205 216 238 244 243 234 230 231 229 224 223 224 227 229 225 215 212 220 218 212 210 211 211 212 213 212 207 203 201 199 196 190 184 173 161 155 149 142 131 121 116 107 100 95 83 61 34 17 2 348 332 323 321 315 299 279 263 259 269 273 267 264 263 268 314 13 15 9 355 349 358 2 356 352 345 342
136 137 139 147 152 153 159 166 170 169 173 184 193 207 219 226 228 225 221 224 229 227 223 218 211 211 216 214 211 210 210 209 208 210 212 212 211 208 206 204 200 196 191 180 173 171 170 165 161 163 148 124 107 90 68 36 11 356 342 329 319 312 303 291 282 274 266 270 275 273 269 266 273 291 309 334 345 340 333 343 353 349 346 342 337
137 143 146 149 152 153 153 154 154 155 162 171 178 186 192 201 212 217 219 221 221 218 213 210 209 208 210 210 208 208 210 209 207 208 210 210 211 210 210 210 207 204 203 202 198 195 193 194 198 207 203 186 171 171 333 331 325 317 313 311 310 308 304 298 293 290 282 278 279 279 276 271 272 284 293 304 318 322 321 327 336 336 335 334 330
128 141 149 155 158 158 155 155 156 149 153 170 179 179 181 189 199 207 216 216 211 208 207 204 203 205 210 210 206 205 207 206 206 209 210 208 210 212 211 210 211 211 209 208 208 206 206 210 219 229 232 234 246 277 299 300 297 295 293 293 295 296 296 296 293 292 289 287 287 283 280 278 276 280 286 289 298 304 304 307 313 320 324 324 322
123 132 142 155 162 160 155 153 152 151 157 167 175 178 182 192 199 203 210 209 204 205 206 201 199 203 209 206 202 205 209 208 208 212 217 213 209 211 214 213 214 216 216 213 211 211 216 224 235 247 254 261 269 281 295 296 292 290 289 287 286 285 286 288 286 285 285 287 289 285 281 280 278 280 285 285 286 290 290 292 301 309 315 316 315
137 137 136 141 145 148 151 150 146 147 153 162 171 179 184 190 195 199 201 199 200 206 207 202 199 203 206 201 201 209 214 214 213 217 224 221 212 212 216 216 215 211 210 213 217 221 227 234 246 259 265 273 282 289 294 294 290 289 286 280 278 279 281 282 281 280 279 279 283 282 277 276 278 279 283 284 284 286 288 287 292 300 304 305 306
152 153 148 145 136 136 145 151 154 152 152 161 166 173 183 186 187 191 192 189 194 202 206 203 201 203 205 201 199 202 205 211 214 216 218 217 216 219 215 214 217 212 206 205 210 220 232 243 256 270 278 286 290 289 291 288 281 278 276 273 273 276 276 277 278 278 275 273 274 274 271 270 273 275 277 281 282 280 281 281 283 288 294 298 301
164 160 154 153 150 139 132 139 153 162 167 176 177 174 180 181 181 185 187 185 189 196 197 195 193 197 199 198 201 207 210 212 212 210 207 202 207 217 220 224 229 217 208 206 210 219 233 249 265 279 283 284 280 279 284 283 274 267 267 271 275 276 271 269 273 275 274 271 270 270 268 267 270 274 275 279 280 279 281 280 280 286 291 296 300
168 165 157 151 151 146 137 132 136 146 168 186 192 191 189 186 186 188 189 192 195 194 191 187 183 188 192 193 201 210 213 213 209 208 209 205 208 216 222 231 230 214 215 233 241 238 236 244 260 272 272 269 268 272 279 277 268 265 267 268 270 272 268 264 267 270 270 269 267 266 266 266 268 271 273 275 276 279 281 280 283 293 298 299 300
149 159 161 155 150 152 152 149 147 141 146 175 190 197 202 205 202 198 197 201 204 207 211 211 212 219 220 216 215 213 213 218 220 219 219 218 220 219 216 218 223 224 235 249 248 242 236 241 254 262 263 263 264 267 271 268 264 266 269 268 268 269 267 264 263 264 265 264 263 263 264 264 265 266 268 271 274 278 281 283 290 299 303 302 304
123 136 156 163 163 163 160 156 158 153 141 151 176 188 194 197 195 195 198 203 208 212 219 222 220 221 221 222 224 225 225 230 230 222 217 212 205 201 204 214 225 231 231 225 223 231 237 246 256 260 262 263 261 259 260 261 263 265 267 269 269 268 266 264 263 262 260 258 257 259 261 260 261 262 264 267 271 275 280 288 297 303 305 304 304
104 100 119 144 156 162 163 157 157 160 154 157 173 185 181 168 153 156 168 183 200 207 209 212 215 219 221 223 227 227 225 227 222 211 209 205 194 194 206 216 215 214 216 219 228 240 246 253 259 260 260 257 253 252 253 255 259 262 264 266 267 267 266 265 264 262 256 251 253 257 258 257 257 258 262 266 268 273 285 296 301 302 301 300 301
90 92 97 109 118 123 131 137 143 157 183 130 69 87 160 164 159 152 144 145 157 171 183 192 197 200 202 200 192 186 190 196 191 186 193 200 201 207 216 215 208 212 223 232 237 240 243 249 254 257 258 256 254 255 256 257 260 261 262 263 264 266 267 265 264 261 254 249 251 254 254 253 252 252 257 264 267 275 288 295 296 295 293 295 298
82 90 92 95 97 100 105 105 101 106 125 111 21 350 17 182 186 173 159 155 153 152 156 158 158 163 165 161 161 167 175 182 183 185 192 194 193 197 200 202 208 221 232 234 234 237 243 251 256 258 260 260 261 263 264 265 266 266 266 265 264 266 267 267 265 260 255 253 254 254 253 252 252 253 258 262 267 277 285 288 289 289 289 292 296
67 75 88 91 81 74 86 94 88 89 108 115 78 358 308 249 234 219 202 192 180 179 180 171 162 164 167 166 169 174 178 180 183 188 188 184 185 192 199 204 208 213 217 220 227 236 246 254 261 264 265 267 269 271 273 274 274 273 272 271 270 270 271 270 263 257 255 255 252 249 245 243 246 255 261 263 268 275 280 282 284 285 286 290 294
47 39 40 55 47 41 53 70 77 86 100 95 74 56 12 281 259 252 246 227 198 200 200 190 182 181 180 176 176 180 183 185 188 190 191 195 203 209 214 218 219 220 223 225 231 241 250 256 261 266 270 274 277 281 285 286 285 284 282 279 277 277 276 271 262 255 252 249 243 240 240 240 244 253 257 258 263 269 274 277 279 279 281 283 288
36 28 23 18 2 3 23 33 40 71 90 63 49 51 47 30 272 240 232 245 261 228 206 199 198 198 198 198 195 195 197 198 200 204 207 208 206 205 210 216 218 221 227 234 244 255 263 269 273 275 278 281 286 293 298 300 298 296 295 292 291 292 288 278 265 255 247 240 233 235 241 247 249 248 247 252 260 267 273 276 275 274 275 278 284
18 16 19 19 5 349 343 339 333 319 303 322 332 339 349 5 25 4 255 251 272 229 204 205 207 205 210 214 211 211 214 215 218 217 210 201 197 199 206 208 207 211 221 234 249 260 270 278 282 284 285 286 291 298 301 303 306 307 306 303 299 298 293 279 264 251 241 234 229 231 239 245 245 243 247 255 263 268 273 274 271 270 272 277 281
359 359 359 3 1 356 350 345 333 311 298 301 298 300 314 316 318 327 306 284 311 303 204 197 198 203 213 219 218 222 225 222 218 210 204 211 230 238 232 223 220 225 231 237 245 253 263 272 277 281 284 286 290 295 297 297 301 307 310 306 295 285 278 269 257 244 236 232 232 238 245 246 244 247 254 259 263 266 270 269 267 268 271 275 277
338 339 338 337 339 343 344 346 344 329 316 312 300 288 297 300 294 288 280 274 284 291 276 203 186 185 188 196 202 210 214 209 205 205 212 231 248 251 245 243 247 255 256 255 254 254 257 264 269 273 277 281 285 288 290 291 292 297 303 304 293 279 270 266 260 253 247 245 246 251 254 252 249 251 256 259 261 264 266 267 267 270 274 276 278
320 318 318 317 316 319 321 323 328 329 327 325 316 299 290 290 290 286 280 275 270 266 266 272 270 249 214 197 190 187 189 194 202 212 225 240 249 247 244 249 259 266 271 272 270 267 265 266 268 268 269 273 277 278 280 283 285 288 294 297 292 281 272 269 267 264 261 259 258 256 254 251 250 252 255 259 262 264 267 269 272 274 276 278 280
310 308 307 304 300 301 302 300 301 303 306 312 311 300 284 274 273 276 278 279 273 265 265 272 270 261 249 238 225 213 206 205 210 217 220 225 236 243 244 250 258 264 270 275 278 280 277 272 270 270 268 268 269 271 273 275 278 284 290 292 289 282 275 271 270 268 266 263 261 258 255 253 252 255 258 260 263 267 272 275 276 277 279 281 283
305 303 303 301 295 291 290 290 288 285 284 288 291 290 285 278 272 266 266 271 269 264 263 261 255 250 248 244 240 238 234 233 237 237 226 218 220 229 236 244 253 261 267 273 278 283 282 277 274 272 269 267 268 269 271 273 277 282 284 283 281 276 273 271 271 269 266 263 261 261 261 260 259 260 262 266 271 276 278 279 280 282 284 285 286
296 294 295 296 293 289 286 283 283 283 282 282 283 281 278 274 272 268 263 262 262 261 261 258 251 248 246 243 242 243 243 245 248 246 239 229 224 227 239 250 259 263 267 272 276 279 280 278 275 270 268 269 271 273 274 276 278 279 277 275 274 272 270 269 269 267 264 262 261 261 261 262 263 265 269 274 278 280 281 283 285 285 286 286 287
293 290 289 288 288 286 284 281 279 280 281 283 284 283 278 273 269 265 261 259 259 262 263 259 251 246 244 243 243 244 244 244 243 241 241 240 240 244 251 258 264 266 267 269 272 273 273 272 270 267 269 273 275 277 277 276 275 273 270 270 270 269 267 265 263 262 260 260 260 261 263 264 266 269 273 276 279 282 284 285 285 284 286 288 290
296 294 291 288 286 283 281 280 278 277 277 278 277 276 279 281 276 265 259 256 255 256 258 257 255 252 250 248 248 247 246 245 243 242 243 243 246 250 254 256 258 260 261 264 267 268 267 265 263 263 268 274 277 277 276 273 269 264 263 267 268 266 264 262 262 262 261 261 262 263 264 265 267 269 272 275 277 279 279 279 281 284 287 290 292
294 294 292 290 287 284 282 280 278 276 276 277 275 271 269 273 275 271 263 255 249 244 242 244 247 248 248 248 247 245 244 243 241 240 240 242 247 252 255 253 252 254 260 264 266 265 261 258 258 262 267 271 274 276 275 269 261 258 261 265 265 262 262 263 265 264 262 259 259 260 262 264 268 271 273 275 276 278 279 281 284 286 288 290 291
289 288 287 285 283 281 281 281 280 277 276 275 274 271 268 266 267 267 265 262 258 250 239 232 231 231 231 236 239 238 236 238 240 242 245 249 252 252 253 252 252 257 264 267 264 260 257 257 262 268 270 270 271 274 271 262 256 258 261 262 261 261 263 266 264 261 258 258 260 263 268 273 276 278 279 281 283 285 288 289 290 290 289 290 290
287 285 283 281 279 278 277 277 277 277 276 273 272 271 270 268 266 263 262 263 262 260 255 249 241 234 229 228 232 235 235 236 239 242 248 251 249 244 247 251 253 256 262 263 260 257 259 266 272 271 268 269 272 271 263 254 253 257 257 255 255 257 257 257 257 257 260 264 269 274 279 281 282 283 285 288 290 291 292 293 293 292 291 290 292
286 283 280 278 277 276 275 274 273 272 272 271 270 270 270 271 269 265 262 260 259 259 258 256 253 250 244 239 238 241 241 239 237 239 243 244 241 241 245 251 252 253 256 258 258 260 266 271 269 262 262 268 271 265 255 251 252 252 246 242 244 245 245 249 255 261 266 272 277 282 283 283 285 288 292 295 297 298 299 298 297 297 298 300 302
293 288 283 279 276 275 274 274 273 271 270 268 267 267 268 269 270 268 264 260 257 257 258 257 255 255 253 249 246 245 245 245 246 245 241 238 238 240 243 247 250 251 253 254 256 262 267 265 257 255 260 260 251 242 242 243 240 235 231 231 234 239 246 255 261 267 274 279 281 283 283 285 289 293 298 302 304 305 306 306 305 305 307 308 309